Time,B instrument,Bx,By,Bz,sigma B,Ion instrument,Status,Tp_par,Tp_perp,carrot,r_sun,clat,clong,earth_he_angle,n_p,vp_x,vp_y,vp_z,vth_p_par,vth_p_perp
1980-02-29 00:00:17,1,-5.3911,3.76233,-0.378767,0.458895,1,1,27466.2,14673.9,1692,0.98266298,-0.71242923,170.53125,281.96875,5.13965,433.026,-13.5864,-10.266,21.294,15.5643
1980-02-29 00:00:58,-1,nan,nan,nan,nan,1,4,nan,nan,1692,0.98266298,-0.71242923,170.52344,281.96875,nan,nan,nan,nan,nan,nan
1980-02-29 00:01:38,-1,nan,nan,nan,nan,1,4,nan,nan,1692,0.98266238,-0.71249014,170.51538,281.96851,nan,nan,nan,nan,nan,nan
1980-02-29 00:02:19,-1,nan,nan,nan,nan,1,4,nan,nan,1692,0.98266178,-0.712551,170.51123,281.96826,nan,nan,nan,nan,nan,nan
1980-02-29 00:02:59,1,-5.35379,3.61364,-0.431061,0.41748,1,1,23364.8,12841.5,1692,0.98266178,-0.71255106,170.50342,281.96826,6.94342,431.389,-11.507,-13.515,19.6399,14.5601
1980-02-29 00:03:40,-1,nan,nan,nan,nan,1,4,nan,nan,1692,0.98266125,-0.71261191,170.49927,281.96802,nan,nan,nan,nan,nan,nan
1980-02-29 00:04:20,1,-5.46415,3.48616,-0.378616,0.459166,1,1,22160.3,12176.2,1692,0.98266065,-0.71267283,170.49121,281.96777,8.20844,431.998,-11.8341,-13.5152,19.127,14.178
1980-02-29 00:05:01,-1,nan,nan,nan,nan,1,4,nan,nan,1692,0.98266006,-0.71273369,170.48706,281.96753,nan,nan,nan,nan,nan,nan
1980-02-29 00:05:41,1,-5.56929,3.43465,-0.323622,0.352348,1,1,19602.6,10962.1,1692,0.98266006,-0.71273375,170.47925,281.96753,10.2644,430.982,-12.5486,-11.9953,17.9893,13.4526
1980-02-29 00:07:02,1,-5.72031,3.31953,-0.209375,0.356821,1,1,19261.5,12173.1,1692,0.98265892,-0.71285552,170.46704,281.96704,7.58678,430.546,-13.6166,-10.3874,17.8321,14.1761
1980-02-29 00:07:43,-1,nan,nan,nan,nan,1,4,nan,nan,1692,0.98265892,-0.71285552,170.45923,281.96704,nan,nan,nan,nan,nan,nan
1980-02-29 00:08:23,1,-5.76063,3.24567,-0.264567,0.346965,1,1,17683.6,10081.4,1692,0.98265833,-0.71291643,170.45532,281.96704,13.1424,430.402,-13.0075,-11.0294,17.0861,12.9009
1980-02-29 00:09:04,-1,nan,nan,nan,nan,1,4,nan,nan,1692,0.98265779,-0.71297729,170.44727,281.9668,nan,nan,nan,nan,nan,nan
1980-02-29 00:09:44,1,-5.72276,3.22846,-0.265854,0.368067,1,1,19353.0,10711.6,1692,0.98265779,-0.71297735,170.44336,281.9668,10.602,430.301,-13.3671,-11.2122,17.8744,13.298
1980-02-29 00:10:25,-1,nan,nan,nan,nan,1,4,nan,nan,1692,0.98265719,-0.71303821,170.4353,281.96655,nan,nan,nan,nan,nan,nan
1980-02-29 00:11:05,-1,nan,nan,nan,nan,1,4,nan,nan,1692,0.9826566,-0.71309906,170.42725,281.96631,nan,nan,nan,nan,nan,nan
1980-02-29 00:11:46,-1,nan,nan,nan,nan,1,4,nan,nan,1692,0.9826566,-0.71309912,170.42334,281.96631,nan,nan,nan,nan,nan,nan
1980-02-29 00:12:26,-1,nan,nan,nan,nan,1,4,nan,nan,1692,0.98265606,-0.71316004,170.41528,281.96606,nan,nan,nan,nan,nan,nan
1980-02-29 00:13:07,1,-4.94797,2.77805,-1.14146,0.402192,1,1,57146.9,15632.7,1692,0.98265547,-0.71322089,170.41113,281.96582,3.49073,436.803,-0.55884,-11.7574,30.7153,16.0648
1980-02-29 00:13:47,1,-5.18519,2.63556,-0.711852,0.326834,1,1,22837.1,10970.6,1692,0.98265547,-0.71322095,170.40332,281.96582,15.2948,431.266,-11.9002,-10.6076,19.4168,13.4578
1980-02-29 00:14:28,1,-5.17917,2.615,-0.629167,0.367864,1,1,86287.3,38211.2,1692,0.98265487,-0.71328181,170.39526,281.96558,3.19677,438.904,-11.5075,-3.68716,37.7426,25.1162
1980-02-29 00:15:08,1,-5.13252,2.62033,-0.774797,0.362702,1,1,22327.8,12252.6,1692,0.98265433,-0.71334267,170.39136,281.96558,11.5194,431.137,-11.8096,-10.4977,19.1991,14.2224
1980-02-29 00:15:49,1,-5.11429,2.54874,-1.28067,0.350852,1,1,106491.0,16645.2,1692,0.98265433,-0.71334273,170.38354,281.96558,2.62072,439.367,-12.9433,-9.44683,41.929,16.5769
1980-02-29 00:16:29,1,-4.99274,2.57097,-1.39435,0.445452,1,1,20931.1,11242.8,1692,0.98265374,-0.71340358,170.37939,281.96533,13.8784,430.673,-11.1234,-10.8214,18.5889,13.6237
1980-02-29 00:17:10,1,-4.71176,2.51176,-1.85042,0.589577,1,1,78809.3,36126.2,1692,0.9826532,-0.7134645,170.37134,281.96509,2.94896,435.366,-12.5171,-1.67969,36.07,24.4213
1980-02-29 00:17:50,1,-5.19528,2.70394,-1.01732,0.75068,1,1,28102.0,13784.6,1692,0.9826532,-0.71346456,170.36743,281.96509,7.93025,429.306,-11.8537,-12.887,21.539,15.0854
1980-02-29 00:18:31,1,-5.50333,2.86417,-0.358333,0.377561,1,1,103405.0,31333.2,1692,0.9826526,-0.71352541,170.35938,281.96484,2.79264,432.426,-10.0177,-6.49776,41.3171,22.7437
1980-02-29 00:19:11,1,-5.63577,2.82195,-0.0707317,0.332372,1,1,18555.7,11041.9,1692,0.98265201,-0.71358627,170.35132,281.9646,12.3591,430.205,-12.2414,-9.80263,17.5024,13.5015
1980-02-29 00:19:52,1,-5.70504,2.84034,-0.0613445,0.331353,1,1,87475.6,42517.2,1692,0.98265201,-0.71358633,170.34741,281.9646,2.63093,431.186,-11.7829,-5.13237,38.0016,26.4936
1980-02-29 00:20:32,1,-5.6121,2.93065,-0.228226,0.386116,1,1,18103.8,11225.1,1692,0.98265147,-0.71364719,170.33936,281.96436,11.1042,431.442,-11.6683,-9.72137,17.2879,13.613
1980-02-29 00:21:13,1,-5.43697,2.92269,-0.255462,0.370328,1,1,69748.8,42965.7,1692,0.98265088,-0.7137081,170.33521,281.96411,2.9529,429.217,-11.7958,-4.83372,33.9333,26.6329
1980-02-29 00:21:53,1,-5.41376,2.86697,-0.338532,0.358496,1,1,17976.3,11870.0,1692,0.98265088,-0.7137081,170.32739,281.96411,11.1533,430.741,-11.7094,-8.95582,17.2269,13.9985
1980-02-29 00:22:34,1,-5.5,2.8225,-0.385,0.367676,1,1,70953.6,41679.2,1692,0.98265028,-0.71376902,170.31934,281.96387,2.88482,432.534,-13.0153,-3.77317,34.2251,26.2312
1980-02-29 00:23:14,1,-5.52362,2.87323,-0.318898,0.393578,1,1,23401.9,12414.3,1692,0.98264974,-0.71382987,170.31543,281.96387,9.03501,430.607,-12.7727,-10.4798,19.6555,14.3159
1980-02-29 00:23:55,1,-5.65827,2.90551,-0.290551,0.348717,1,1,78049.8,52527.9,1692,0.98264974,-0.71382993,170.30762,281.96387,2.54609,436.337,-15.1692,-6.13326,35.8958,29.4478
1980-02-29 00:24:35,1,-5.59773,2.95833,-0.302273,0.376582,1,1,24376.6,14777.8,1692,0.98264915,-0.71389079,170.30347,281.96362,6.45382,430.417,-13.5069,-10.8124,20.0606,15.6193
1980-02-29 00:25:16,1,-5.6252,2.93386,-0.377953,0.371442,1,1,75011.2,53125.3,1692,0.98264855,-0.71395171,170.29541,281.96338,2.54181,434.566,-14.7923,-10.2876,35.1901,29.6148
1980-02-29 00:25:56,1,-5.42748,2.8458,-0.468702,0.399885,1,1,23607.4,12354.0,1692,0.98264855,-0.71395171,170.2915,281.96338,9.96133,430.141,-11.857,-12.3701,19.7416,14.2811
1980-02-29 00:26:37,1,-5.375,2.84758,-0.372581,0.380031,1,1,124466.0,39227.6,1692,0.98264802,-0.71401262,170.28345,281.96313,2.4759,432.334,-10.3231,-11.5451,45.3298,25.448
1980-02-29 00:27:17,1,-5.41333,2.77778,-0.445185,0.421142,1,1,23385.4,11917.7,1692,0.98264742,-0.71407348,170.27539,281.96289,10.2542,429.362,-12.4066,-12.5301,19.6485,14.0266
1980-02-29 00:27:58,1,-5.4916,2.6916,-0.267227,0.399215,1,1,80718.1,50740.7,1692,0.98264742,-0.71407354,170.27148,281.96289,2.51715,431.219,-12.9963,-7.2882,36.5043,28.9425
1980-02-29 00:28:38,1,-5.51371,2.75323,-0.2,0.337871,1,1,23591.9,13744.1,1692,0.98264682,-0.7141344,170.26343,281.96265,6.95159,430.308,-12.5814,-10.6217,19.7351,15.0632
1980-02-29 00:29:19,-1,nan,nan,nan,nan,1,4,nan,nan,1692,0.98264629,-0.71419531,170.25928,281.9624,nan,nan,nan,nan,nan,nan
1980-02-29 00:29:59,1,-5.63465,3.15906,0.0448819,0.37024,1,1,21870.0,12677.3,1692,0.98264629,-0.71419531,170.25146,281.9624,8.22114,431.22,-12.417,-11.666,19.0012,14.4667
1980-02-29 00:30:40,-1,nan,nan,nan,nan,1,4,nan,nan,1692,0.98264569,-0.71425623,170.24365,281.9624,nan,nan,nan,nan,nan,nan
1980-02-29 00:31:20,1,-5.51743,3.33945,-0.117431,0.355741,1,1,27461.4,14354.9,1692,0.98264509,-0.71431708,170.2395,281.96216,5.20223,431.023,-12.4844,-12.7217,21.2921,15.3942
1980-02-29 00:32:01,-1,nan,nan,nan,nan,1,4,nan,nan,1692,0.98264456,-0.71437794,170.23145,281.96191,nan,nan,nan,nan,nan,nan
1980-02-29 00:32:41,1,-5.62661,3.14355,0.0887097,0.371909,1,1,24955.4,13893.9,1692,0.98264456,-0.714378,170.22754,281.96191,5.77801,430.137,-13.1492,-12.7573,20.2974,15.145
1980-02-29 00:33:22,1,-5.53937,3.17638,-0.132283,0.366188,1,1,120855.0,33328.4,1692,0.98264396,-0.71443892,170.21948,281.96167,2.43765,442.378,-12.0835,-9.93298,44.6674,23.4566
1980-02-29 00:34:02,-1,nan,nan,nan,nan,1,4,nan,nan,1692,0.98264337,-0.71449977,170.21533,281.96143,nan,nan,nan,nan,nan,nan
1980-02-29 00:34:43,-1,nan,nan,nan,nan,1,4,nan,nan,1692,0.98264337,-0.71449983,170.20752,281.96143,nan,nan,nan,nan,nan,nan
1980-02-29 00:35:23,-1,nan,nan,nan,nan,1,4,nan,nan,1692,0.98264283,-0.71456069,170.19946,281.96118,nan,nan,nan,nan,nan,nan
1980-02-29 00:36:04,-1,nan,nan,nan,nan,1,4,nan,nan,1692,0.98264223,-0.71462154,170.19531,281.96094,nan,nan,nan,nan,nan,nan
1980-02-29 00:36:44,-1,nan,nan,nan,nan,1,4,nan,nan,1692,0.98264223,-0.7146216,170.1875,281.96094,nan,nan,nan,nan,nan,nan
1980-02-29 00:37:25,1,-5.34809,3.13053,-0.543511,0.712842,1,1,121644.0,16172.1,1692,0.9826417,-0.71468246,170.18335,281.96069,2.43566,441.329,-11.4021,-11.743,44.813,16.3396
1980-02-29 00:38:05,-1,nan,nan,nan,nan,1,4,nan,nan,1692,0.9826411,-0.71474338,170.17554,281.96069,nan,nan,nan,nan,nan,nan
1980-02-29 00:38:46,1,-5.20726,3.25403,-0.682258,0.317658,1,1,106238.0,13295.8,1692,0.9826411,-0.71474344,170.16772,281.96069,2.96747,441.792,-11.6568,-13.0848,41.8792,14.8155
1980-02-29 00:39:26,1,-5.1229,3.31221,-0.771756,0.349014,1,1,21605.4,11366.5,1692,0.9826405,-0.71480429,170.16357,281.96045,8.50223,428.486,-13.0538,-12.3734,18.886,13.6984
1980-02-29 00:40:07,1,-5.17143,3.07899,-0.760504,0.331849,1,1,125748.0,15286.1,1692,0.98263997,-0.71486515,170.15552,281.96021,2.7522,442.723,-12.7604,-12.1409,45.5626,15.8857
1980-02-29 00:40:47,-1,nan,nan,nan,nan,1,4,nan,nan,1692,0.98263997,-0.71486521,170.15161,281.96021,nan,nan,nan,nan,nan,nan
1980-02-29 00:41:28,1,-5.23701,3.10866,-0.496063,0.364622,1,1,133476.0,18374.5,1692,0.98263937,-0.71492606,170.14355,281.95996,2.63104,440.38,-11.7178,-13.0348,46.9417,17.4167
1980-02-29 00:42:08,-1,nan,nan,nan,nan,1,4,nan,nan,1692,0.98263878,-0.71498698,170.1394,281.95972,nan,nan,nan,nan,nan,nan
1980-02-29 00:42:49,1,-5.24032,3.05,-0.431452,0.360954,1,1,133942.0,20286.8,1692,0.98263878,-0.71498698,170.13159,281.95972,2.35888,434.288,-10.9267,-12.7649,47.0237,18.3006
1980-02-29 00:43:29,-1,nan,nan,nan,nan,1,4,nan,nan,1692,0.98263824,-0.7150479,170.12354,281.95947,nan,nan,nan,nan,nan,nan
1980-02-29 00:44:10,1,-5.24538,3.25042,-0.414286,0.389118,1,1,147069.0,16663.0,1692,0.98263764,-0.71510875,170.11938,281.95923,3.3346,442.726,-15.2565,-12.5932,49.274,16.5857
1980-02-29 00:44:50,-1,nan,nan,nan,nan,1,4,nan,nan,1692,0.98263764,-0.71510881,170.11157,281.95923,nan,nan,nan,nan,nan,nan
1980-02-29 00:45:31,1,-5.31765,3.13613,-0.5,0.375819,1,1,82043.0,44832.3,1692,0.98263705,-0.71516967,170.10767,281.95923,2.24995,437.629,-14.1902,-8.94269,36.8026,27.2053
1980-02-29 00:46:11,1,-5.2189,3.26299,-0.586614,0.372879,1,1,22789.3,12275.9,1692,0.98263651,-0.71523058,170.09961,281.95898,7.16082,430.324,-12.8965,-12.1711,19.3965,14.2359
1980-02-29 00:46:52,1,-5.2125,3.21583,-0.6725,0.382649,1,1,115480.0,18533.6,1692,0.98263651,-0.71523058,170.0957,281.95898,2.37215,437.699,-11.5128,-11.1535,43.6627,17.4919
1980-02-29 00:47:32,1,-5.22205,3.15039,-0.606299,0.394157,1,1,22877.8,12212.6,1692,0.98263592,-0.7152915,170.08765,281.95874,8.18033,430.251,-12.0413,-13.1446,19.4341,14.1991
1980-02-29 00:48:13,1,-5.28976,3.11496,-0.446457,0.380366,1,1,140684.0,30909.9,1692,0.98263532,-0.71535236,170.07959,281.9585,2.11176,440.088,-11.8596,-10.1164,48.1927,22.5895
1980-02-29 00:48:53,1,-5.31562,3.05469,-0.428906,0.391601,1,1,22763.5,11191.6,1692,0.98263532,-0.71535242,170.07568,281.9585,9.78803,429.865,-12.4239,-12.6985,19.3855,13.5927
1980-02-29 00:49:34,1,-5.30252,2.97143,-0.652101,0.352292,1,1,124420.0,18489.4,1692,0.98263478,-0.71541327,170.06763,281.95825,2.08386,439.966,-12.1005,-11.6084,45.3214,17.471
1980-02-29 00:50:14,1,-5.25528,3.05366,-0.753659,0.367543,1,1,21306.0,10723.8,1692,0.98263419,-0.71547419,170.06348,281.95801,10.5504,429.692,-11.9549,-12.1522,18.7546,13.3056
1980-02-29 00:50:55,1,-5.235,3.07417,-0.679167,0.329909,1,1,119825.0,23009.8,1692,0.98263419,-0.71547419,170.05566,281.95801,2.04932,435.698,-10.028,-11.4475,44.4767,19.4901
1980-02-29 00:51:35,1,-5.21301,3.03333,-0.745528,0.337344,1,1,22352.6,12376.4,1692,0.98263359,-0.7155351,170.04761,281.95776,8.65412,429.648,-11.7063,-13.0484,19.2098,14.294
1980-02-29 00:52:16,1,-5.19664,3.06723,-0.940336,0.350836,1,1,128619.0,26490.2,1692,0.98263305,-0.71559596,170.04346,281.95752,2.14764,437.531,-11.7382,-11.2756,46.0797,20.9122
1980-02-29 00:52:56,-1,nan,nan,nan,nan,1,4,nan,nan,1692,0.98263305,-0.71559602,170.03564,281.95752,nan,nan,nan,nan,nan,nan
1980-02-29 00:53:37,1,-5.10157,2.98425,-0.979528,0.36753,1,1,51920.5,32844.0,1692,0.98263246,-0.71565688,170.03174,281.95752,2.03884,435.263,-15.8699,-9.0934,29.2771,23.2855
1980-02-29 00:54:17,1,-5.16772,2.97087,-1.06772,0.357347,1,1,22092.8,11983.0,1692,0.98263186,-0.71571773,170.02368,281.95728,10.1818,429.541,-11.2114,-12.5501,19.0978,14.065
1980-02-29 00:54:58,1,-5.07258,2.97177,-1.06935,0.359228,1,1,75512.8,45023.9,1692,0.98263186,-0.71571779,170.01978,281.95728,2.18929,438.463,-14.0016,-7.57839,35.3076,27.2634
1980-02-29 00:55:38,1,-5.10787,2.86614,-1.07087,0.391431,1,1,21107.9,11825.7,1692,0.98263133,-0.71577871,170.01172,281.95703,9.50136,429.619,-11.291,-12.8598,18.6673,13.9724
1980-02-29 00:56:19,1,-5.00325,2.87398,-1.1561,0.589325,1,1,70499.4,47819.3,1692,0.98263073,-0.71583956,170.00366,281.95679,2.05464,433.837,-13.0778,-6.79346,34.1154,28.097
1980-02-29 00:56:59,1,-4.80091,2.94182,-1.30909,0.63952,1,1,22424.8,13207.6,1692,0.98263073,-0.71583962,169.99976,281.95679,8.0178,429.021,-12.321,-12.144,19.2408,14.7662
1980-02-29 00:57:40,1,-4.7411,2.99632,-1.20061,0.356898,1,1,66798.6,44755.7,1692,0.98263019,-0.71590048,169.9917,281.95654,2.13426,429.305,-14.9972,-10.3205,33.2079,27.182
1980-02-29 00:58:20,1,-4.9237,2.89037,-1.17556,0.391871,1,1,22984.6,13440.3,1692,0.98263776,-0.57958496,169.90793,281.87668,7.58907,428.451,-12.4167,-12.3425,19.4794,14.8958
1980-02-29 00:59:01,1,-4.99297,2.71797,-1.09844,0.387218,1,1,63700.2,43853.6,1692,0.982629,-0.71602225,169.97949,281.95605,2.20911,429.777,-16.2343,-8.55633,32.4286,26.9067
1980-02-29 00:59:41,1,-4.92764,2.85528,-1.00894,0.36303,1,1,21454.3,11636.4,1692,0.982629,-0.71602225,169.97168,281.95605,9.32664,427.323,-12.3695,-12.6224,18.8198,13.8601
1980-02-29 01:00:22,1,-5.20336,3.04202,-0.481513,0.647736,1,1,45173.1,51521.1,1692,0.98262846,-0.71608317,169.96777,281.95605,2.08286,428.498,-16.1366,-9.03367,27.3085,29.1642
1980-02-29 01:01:02,1,-5.4375,3.32812,0.175781,0.411302,1,1,84767.8,31046.4,1692,0.98262787,-0.71614403,169.95972,281.95581,3.32829,441.957,-22.2182,-16.1026,37.4088,22.6393
1980-02-29 01:01:43,1,-5.23386,3.35354,-0.0779528,0.416572,1,1,44748.4,48442.7,1692,0.98262787,-0.71614408,169.95581,281.95581,1.68535,422.077,-13.277,-9.84121,27.1798,28.2795
1980-02-29 01:03:04,1,-4.43906,2.71641,-0.979687,0.347395,1,1,52182.2,46329.2,1692,0.98262668,-0.71626586,169.9436,281.95532,2.39482,424.143,-18.4911,-8.89402,29.3508,27.6557
1980-02-29 01:03:44,1,-4.2874,2.43071,-1.26142,0.451864,1,1,50438.6,23378.8,1692,0.98262668,-0.71626586,169.93579,281.95532,3.89612,425.612,-12.3279,-13.0243,28.8562,19.6458
1980-02-29 01:04:25,1,-4.2561,2.21789,-1.25366,0.400705,1,1,89586.8,67120.0,1692,0.98262614,-0.71632677,169.92773,281.95508,3.53872,418.122,-9.39282,-14.8632,38.4574,33.2877
1980-02-29 01:05:05,1,-4.48476,2.36037,-1.40061,0.517229,1,1,31299.2,17108.7,1692,0.98262554,-0.71638763,169.92358,281.95483,4.9477,427.481,-12.1479,-11.6278,22.7313,16.8061
1980-02-29 01:05:46,1,-5.06929,2.96299,-0.924409,0.471224,1,1,394405.0,15229.7,1692,0.98262554,-0.71638769,169.91577,281.95483,7.21768,490.322,-47.2638,-4.66646,80.6917,15.8564
1980-02-29 01:06:26,-1,nan,nan,nan,nan,1,4,nan,nan,1692,0.98262495,-0.71644855,169.91162,281.95459,nan,nan,nan,nan,nan,nan
1980-02-29 01:07:07,1,-5.08281,3.04766,-0.804688,0.646013,1,1,106028.0,55089.9,1692,0.98262441,-0.71650946,169.90356,281.95435,2.36359,433.621,-17.0381,-11.4752,41.8378,30.1574
1980-02-29 01:07:47,1,-5.0637,3.16889,-0.831852,0.664856,1,1,27487.1,12853.3,1692,0.98262441,-0.71650946,169.89966,281.95435,5.70018,427.691,-14.3615,-13.7003,21.3021,14.5668
1980-02-29 01:08:28,1,-5.23659,3.12195,-0.556911,0.349189,1,1,99301.0,55812.9,1692,0.98262382,-0.71657038,169.89185,281.95435,2.15624,428.707,-15.7487,-11.5207,40.4888,30.3547
1980-02-29 01:09:08,-1,nan,nan,nan,nan,1,4,nan,nan,1692,0.98262322,-0.71663123,169.88379,281.9541,nan,nan,nan,nan,nan,nan
1980-02-29 01:09:49,1,-5.1685,3.18268,-0.596063,0.392889,1,1,94135.9,54315.3,1692,0.98262322,-0.71663129,169.87988,281.9541,1.88507,426.887,-13.3621,-14.6594,39.4217,29.9446
1980-02-29 01:10:29,-1,nan,nan,nan,nan,1,4,nan,nan,1692,0.98262262,-0.71669215,169.87183,281.95386,nan,nan,nan,nan,nan,nan
1980-02-29 01:11:50,1,-5.51654,3.36457,0.511811,0.378332,1,1,24829.5,13803.0,1692,0.98262209,-0.71675307,169.85986,281.95361,4.3767,432.376,-14.8335,-10.4542,20.2461,15.0954
1980-02-29 01:12:31,1,-5.46763,3.2554,0.268345,0.351651,1,1,65918.8,58283.8,1692,0.98262149,-0.71681398,169.85181,281.95337,1.82074,424.13,-14.4725,-11.4394,32.9885,31.0193
1980-02-29 01:13:11,1,-5.44758,3.35565,0.210484,0.454118,1,1,22039.9,12702.1,1692,0.98262089,-0.71687484,169.84766,281.95313,5.3747,430.659,-13.9263,-10.7497,19.0749,14.4809
1980-02-29 01:13:52,1,-5.49664,3.31681,0.114286,0.364735,1,1,66609.6,53957.1,1692,0.98262089,-0.7168749,169.83984,281.95313,1.96323,426.901,-16.3247,-8.15058,33.1609,29.8457
1980-02-29 01:14:32,1,-5.575,3.25833,0.4025,0.406878,1,1,23041.8,14219.7,1692,0.98262036,-0.71693575,169.83569,281.95288,3.41346,432.117,-16.1919,-8.13352,19.5037,15.3216
1980-02-29 01:15:13,1,-5.27304,3.48435,-0.127826,0.364623,1,1,70353.3,54884.4,1692,0.98261976,-0.71699661,169.82788,281.95288,1.74784,431.279,-14.4275,-12.6264,34.0801,30.1011
1980-02-29 01:15:53,1,-5.23782,3.45042,-0.276471,0.394409,1,1,22439.3,11112.0,1692,0.98261976,-0.71699667,169.82397,281.95288,8.67253,430.587,-12.134,-12.9662,19.247,13.5442
1980-02-29 01:16:34,1,-5.25833,3.43417,-0.0941667,0.370445,1,1,88041.8,53535.4,1692,0.98261917,-0.71705759,169.81592,281.95264,1.92131,430.039,-13.4901,-9.87808,38.1243,29.7289
1980-02-29 01:17:14,1,-5.23984,3.48537,-0.144715,0.36551,1,1,20876.0,11204.4,1692,0.98261857,-0.71711844,169.80786,281.95239,8.65972,431.016,-12.3903,-11.8766,18.5644,13.6004
1980-02-29 01:17:55,1,-5.16387,3.44202,-0.236134,0.334302,1,1,89878.3,54936.2,1692,0.98261857,-0.7171185,169.80396,281.95239,1.93839,431.52,-13.3112,-9.6476,38.5199,30.1153
1980-02-29 01:19:16,1,-5.1748,3.3937,-0.459055,0.410889,1,1,22352.5,11827.2,1692,0.98261744,-0.71724021,169.79175,281.9519,8.07833,429.66,-12.1598,-12.2658,19.2097,13.9733
1980-02-29 01:19:26,1,-5.18898,3.35984,-0.429134,0.415753,1,1,22295.1,11854.2,1692,0.98261744,-0.71724027,169.78784,281.9519,8.051,429.727,-12.197,-12.2157,19.185,13.9893
1980-02-29 01:19:46,1,-5.22362,3.30079,-0.328346,0.352907,1,1,54305.9,46518.4,1692,0.98262542,-0.58086562,169.70419,281.87216,2.21909,431.874,-15.6344,-6.42478,29.942,27.7122
1980-02-29 01:20:33,-1,nan,nan,nan,nan,1,3,nan,nan,1692,0.98261684,-0.71730113,169.77979,281.95166,nan,432.659,-17.7,-13.9947,nan,nan
1980-02-29 01:42:09,-1,nan,nan,nan,nan,1,3,nan,nan,1692,0.98260409,-0.71864092,169.57593,281.94702,nan,421.738,-1.52419,1.5771,nan,nan
1980-02-29 02:03:45,-1,nan,nan,nan,nan,1,3,nan,nan,1692,0.98259193,-0.7199198,169.37231,281.94263,nan,422.895,5.72988,5.84684,nan,nan
1980-02-29 02:46:57,-1,nan,nan,nan,nan,1,3,nan,nan,1692,0.98256689,-0.72253847,168.96875,281.93359,nan,430.149,1.00852,5.90818,nan,nan
1980-02-29 03:08:33,-1,nan,nan,nan,nan,1,4,nan,nan,1692,0.98255396,-0.72387826,168.7688,281.92896,nan,nan,nan,nan,nan,nan
1980-02-29 03:51:45,-1,nan,nan,nan,nan,1,3,nan,nan,1692,0.98252869,-0.72649711,168.36133,281.91992,nan,435.28,-14.0051,1.74089,nan,nan
1980-02-29 04:13:21,-1,nan,nan,nan,nan,1,3,nan,nan,1692,0.98251563,-0.72783697,168.16138,281.91528,nan,431.476,-25.2273,-12.9362,nan,nan
1980-02-29 04:34:57,-1,nan,nan,nan,nan,1,3,nan,nan,1692,0.98250318,-0.72911596,167.95776,281.91089,nan,437.946,-16.3735,3.40137,nan,nan
1980-02-29 04:56:33,-1,nan,nan,nan,nan,1,3,nan,nan,1692,0.98249012,-0.73045576,167.75781,281.90625,nan,425.367,-26.764,2.48539,nan,nan
1980-02-29 05:39:45,-1,nan,nan,nan,nan,1,4,nan,nan,1692,0.98246449,-0.73307472,167.35034,281.89722,nan,nan,nan,nan,nan,nan
1980-02-29 06:01:21,-1,nan,nan,nan,nan,1,4,nan,nan,1692,0.98245132,-0.73441464,167.15039,281.89258,nan,nan,nan,nan,nan,nan
1980-02-29 06:46:57,-1,nan,nan,nan,nan,1,4,nan,nan,1692,0.9824242,-0.73715544,166.7229,281.88306,nan,nan,nan,nan,nan,nan
1980-02-29 07:08:33,-1,nan,nan,nan,nan,1,4,nan,nan,1692,0.98241091,-0.73849535,166.51929,281.87866,nan,nan,nan,nan,nan,nan
1980-02-29 07:30:09,-1,nan,nan,nan,nan,1,4,nan,nan,1692,0.98239762,-0.73983526,166.31934,281.87402,nan,nan,nan,nan,nan,nan
1980-02-29 07:51:45,-1,nan,nan,nan,nan,1,3,nan,nan,1692,0.98238486,-0.74111432,166.11548,281.86938,nan,390.282,26.9239,-14.5926,nan,nan
1980-02-29 08:10:57,-1,nan,nan,nan,nan,1,3,nan,nan,1692,0.9823733,-0.74227154,165.93579,281.86548,nan,392.828,29.4256,1.36815,nan,nan
1980-02-29 08:13:17,-1,nan,nan,nan,nan,1,4,nan,nan,1692,0.98237145,-0.74245423,165.91553,281.86475,nan,nan,nan,nan,nan,nan
1980-02-29 08:31:28,-1,nan,nan,nan,nan,1,3,nan,nan,1692,0.98236883,-0.60666811,165.66409,281.78128,nan,368.359,-16.097,-12.7118,nan,nan
1980-02-29 08:34:53,-1,nan,nan,nan,nan,1,3,nan,nan,1692,0.98236674,-0.60687065,165.63211,281.78055,nan,368.358,-16.097,-12.7118,nan,nan
1980-02-29 09:34:15,1,-1.51333,5.91333,2.58667,0.527383,1,1,49609.0,37390.7,1692,0.98232239,-0.74732709,165.15674,281.84814,2.83996,401.844,29.8265,-12.3456,28.6179,24.845
1980-02-29 09:34:32,1,-1.7,5.83571,2.61429,0.592168,1,1,34383.9,46330.5,1692,0.98232174,-0.74738801,165.15259,281.8479,2.70685,407.809,36.2793,-11.18,23.8251,27.6561
1980-02-29 09:35:14,1,-2.15714,5.62143,2.97857,0.846059,1,1,40811.6,47350.8,1692,0.98232114,-0.74744886,165.14844,281.84766,2.81634,400.415,29.7826,3.17088,25.9567,27.959
1980-02-29 09:35:54,1,-2.57333,5.58667,2.61333,1.0081,1,1,33145.7,42071.2,1692,0.98232114,-0.74744892,165.14063,281.84766,2.65392,389.007,28.5317,-18.8254,23.3922,26.3542
1980-02-29 09:36:35,1,-2.14667,5.64667,3.05333,0.300222,1,1,44677.1,43103.1,1692,0.98232055,-0.74750978,165.13257,281.84741,2.66056,399.74,33.6168,-7.12952,27.1582,26.6755
1980-02-29 09:37:56,-1,nan,nan,nan,nan,1,4,nan,nan,1692,0.98231989,-0.74757075,165.12061,281.84717,nan,nan,nan,nan,nan,nan
1980-02-29 09:38:36,1,-3.36,4.86667,2.29333,0.57147,1,1,37888.1,59351.9,1692,0.9823193,-0.74763161,165.11646,281.84692,2.61781,386.756,27.727,-14.3883,25.0097,31.3022
1980-02-29 09:39:57,1,-2.61333,5.51333,2.56,0.684625,1,1,38384.4,56045.4,1692,0.9823187,-0.74769258,165.10449,281.84668,2.82628,405.081,37.2606,-8.45219,25.173,30.4178
1980-02-29 09:40:37,1,-2.56667,5.56667,2.60667,0.495042,1,1,49425.2,40472.6,1692,0.98231804,-0.74775344,165.09668,281.84668,2.53286,399.196,30.2924,-10.8976,28.5649,25.8487
1980-02-29 10:16:55,-1,nan,nan,nan,nan,1,3,nan,nan,1692,0.98229581,-0.74994624,164.75708,281.83911,nan,391.483,25.9293,-22.4376,nan,nan
1980-02-29 10:17:35,1,-2.65333,5.38667,2.10667,0.411825,1,1,30745.8,49324.1,1692,0.98229516,-0.75000709,164.74902,281.83887,2.62384,398.949,31.8519,-15.2845,22.5295,28.5356
1980-02-29 10:18:16,1,-3.05333,5.15333,2.2,0.362828,1,1,37444.3,34785.5,1692,0.98229456,-0.75006801,164.74487,281.83862,2.4122,393.122,28.5065,-13.5983,24.8629,23.9639
1980-02-29 10:18:56,1,-2.86,5.34,1.96667,0.367454,1,1,35918.9,55541.6,1692,0.98229456,-0.75006801,164.73706,281.83862,2.62043,395.009,29.9654,-21.3024,24.3511,30.2808
1980-02-29 10:19:38,1,-2.775,5.39375,1.775,0.283877,1,1,35247.7,36044.3,1692,0.98229396,-0.75012892,164.73291,281.83838,2.2618,396.224,25.0838,-17.8046,24.1226,24.3936
1980-02-29 10:20:18,1,-2.88,5.31333,1.35333,0.716411,1,1,22687.3,51544.6,1692,0.98229331,-0.75018978,164.72485,281.83813,2.30972,394.91,30.7197,-20.9464,19.353,29.1709